Regional Weather Roundup
Issued by NWS

Home | Current Version | Previous Version | Text Only | Print | Product List | Glossary Off
Versions: 1 2 3 4 5 6 7 8 9 10 11 12 13 14 15 16 17 18 19 20 21 22 23 24 25 26 27 28 29 30 31 32 33 34 35 36 37 38 39 40 41 42 43 44 45 46 47 48 49 50

000
ASUS43 KDTX 041110
RWRMI
MICHIGAN HOURLY REGIONAL WEATHER ROUNDUP
NATIONAL WEATHER SERVICE DETROIT/PONTIAC MI
600 AM EST WED MAR 04 2015

NOTE: "FAIR" INDICATES FEW OR NO CLOUDS BELOW 12,000 FEET WITH NO
SIGNIFICANT WEATHER AND/OR OBSTRUCTION TO VISIBILITY.

MIZ047>049-052>055-059>063-066>070-074>076-081>083-041200-
SOUTHEAST LOWER MICHIGAN

CITY           SKY/WX    TMP DP  RH WIND       PRES   REMARKS
ADRIAN         CLOUDY    30  23  75 W6        29.88R WCI  24
ALMA           CLOUDY    27  20  75 W8        29.85R WCI  19
ANN ARBOR      CLOUDY    29  23  78 W6        29.86R WCI  23
BAD AXE        CLOUDY    24  20  85 W7        29.82R WCI  16
CARO           CLOUDY    28  21  77 SW6       29.83R WCI  21
DETROIT CITY   CLOUDY    32  22  66 W3        29.85S
DETROIT        CLOUDY    30  23  74 W5        29.87R WCI  25
FLINT          CLOUDY    30  21  69 W10       29.85R WCI  21
GROSSE ILE     CLOUDY    30  25  80 W6        29.85R WCI  24
HILLSDALE      CLOUDY    30  25  81 W5        29.86R WCI  25
HOWELL         CLOUDY    28  23  80 W8        29.85R WCI  20

CITY           SKY/WX    TMP DP  RH WIND       PRES   REMARKS
JACKSON        CLOUDY    29  22  75 W6        29.86R WCI  23
LAMBERTVILLE   CLOUDY    32  27  80 CALM      29.88R
LANSING        CLOUDY    29  22  75 W9        29.86R WCI  20
LAPEER         CLOUDY    28  22  77 W5        29.83R WCI  23
MASON          CLOUDY    28  23  79 W6        29.86R WCI  22
MONROE         CLOUDY    30  25  80 NW6       29.85S WCI  24
MT. CLEMENS    CLOUDY    30  22  74 SW6       29.82S WCI  24
PONTIAC        CLOUDY    28  21  75 W6        29.83R WCI  22
PORT HOPE        N/A     24  18  77 SW6       29.79R WCI  17
PORT HURON     CLOUDY    28  21  74 CALM      29.85R
TRI CITIES     CLOUDY    27  19  72 W9        29.84R WCI  18
TROY           CLOUDY    32  23  71 SW3       29.86R
SAGINAW HB     PTCLDY    28  21  74 SW9       29.84R WCI  20
$$
MIZ043>046-050>051-056>058-064>065-071>073-077>080-041200-
SOUTHWEST LOWER MICHIGAN

CITY           SKY/WX    TMP DP  RH WIND       PRES   REMARKS
BATTLE CREEK   CLOUDY    31  23  72 W8        29.88R WCI  23
BENTON HARBOR  CLOUDY    30  24  78 NW10      29.92R WCI  21
BIG RAPIDS     CLOUDY    24  19  83 W6        29.83R WCI  17
COLDWATER      CLOUDY    29  24  80 W7        29.88R WCI  22
FREMONT        FAIR      23  14  69 NW12      29.87R WCI  11
HOLLAND        CLOUDY    29  20  69 NW10      29.91R WCI  20
GRAND RAPIDS   PTCLDY    27  18  69 W13       29.88R WCI  16
IONIA          CLOUDY    30  21  70 W12       29.85R WCI  20
KALAMAZOO      CLOUDY    30  23  75 W7        29.89R WCI  23
LUDINGTON      CLEAR     23  12  62 NW12G18   29.89R WCI  12
MARSHALL       CLOUDY    28  24  82 W6        29.87R WCI  22
MOUNT PLEASANT CLOUDY    25  19  79 W7        29.83R WCI  17
MUSKEGON       PTCLDY    25  15  66 NW12G20   29.90R WCI  14
SOUTH HAVEN    CLOUDY    32  24  74 NW6       29.91R WCI  26
$$
MIZ016>042-041200-
NORTHERN LOWER MICHIGAN

CITY           SKY/WX    TMP DP  RH WIND       PRES   REMARKS
ALPENA         CLOUDY    19  10  68 W6        29.80R WCI  11
BEAVER ISLAND  CLOUDY    15   7  72 NW8       29.84R WCI   4
BELLAIRE       CLOUDY    20  11  70 CALM      29.84R
CADILLAC       FLURRIES  20  14  76 NW10      29.79R WCI   9
CHARLEVOIX     CLOUDY    15  11  82 NW7       29.87R WCI   5
FRANKFORT      CLEAR     20  10  65 NW15G21   29.86R WCI   7
GAYLORD        CLOUDY    16   9  74 NW7       29.77R WCI   6
GRAYLING       CLOUDY    18  12  76 W7        29.80R WCI   9
HARBOR SPRINGS CLOUDY    16   7  66 NW8G16    29.82R WCI   5
HOUGHTON LAKE  FLURRIES  19  12  74 NW12      29.80R WCI   7
MANISTEE       MOCLDY    21  10  63 NW20      29.88R WCI   6
OSCODA         MOCLDY    19  18  96 SW8       29.79R WCI   8
PELLSTON       CLOUDY    16   8  71 NW15G24   29.83R WCI   1
ROGERS CITY    CLOUDY    18  12  77 W9G17     29.81R WCI   7
TRAVERSE CITY  PTCLDY    20  12  71 W10       29.83R WCI   9
$$
MIZ007>008-015-041200-
EASTERN UPPER MICHIGAN

CITY           SKY/WX    TMP DP  RH WIND       PRES   REMARKS
KINROSS        CLOUDY    12   7  79 W15       29.78R WCI  -4
MACKINAC ISLAN CLOUDY    15   7  70 NW12G21   29.81R WCI   2
NEWBERRY       CLOUDY    10   5  82 W7        29.79R WCI  -2
S. S. MARIE    PTCLDY    11   4  73 NW12G22   29.77R WCI  -3
MUNISING         N/A     12   0  58 NW14G29   29.85R WCI  -3
$$
MIZ004>006-011>014-085-041200-
CENTRAL UPPER MICHIGAN

CITY           SKY/WX    TMP DP  RH WIND       PRES   REMARKS
MANISTIQUE     MOCLDY    10   6  82 CALM      29.83R
ESCANABA       PTCLDY    12   1  62 NW10      29.88R WCI  -1
MENOMINEE      CLEAR     12   0  57 NW7       29.90R WCI   2
SAWYER-GWINN   PTCLDY     6  -1  70 NW10      29.82R WCI  -8
$$
MIZ001>003-009>011-084-041200-
WESTERN UPPER MICHIGAN

CITY           SKY/WX    TMP DP  RH WIND       PRES   REMARKS
IRON MOUNTAIN  CLEAR      6  -4  63 W13G20    29.85R WCI -10
HOUGHTON       CLOUDY     3  -3  76 NW22      29.81R WCI -19
COPPER HARBOR    N/A      4  -5  66 N17G28    29.83R WCI -16
IRONWOOD       PTCLDY    -2  -8  78 W15G21    29.88R WCI -22
$$

ABBREVIATIONS USED IN REMARKS
   TC - TEMPERATURE IN CELSIUS
  WCI - WIND CHILL INDEX
   HX - HEAT INDEX
  VSB - VISIBILITY




USA.gov is the U.S. government's official web portal to all federal, state and local government web resources and services.